User: anonymous   Login
Location: Wildlife_Club
(35.6000°N, 81.4330°W)
Time: 03:29:33
(UTC-05:00)
Language:

Cosmos 1782 - Orbit

View from above orbital plane
View from above orbital plane
View from above satellite
View from above satellite

Ground track
Ground track

The orbit data is extracted from the following two-line orbital elements,

1 16986U 86074A   14353.87688203  .00005428  00000-0  39107-3 0  9254
2 16986 082.5086 285.5826 0010756 197.8231 162.2619 15.03951671533878
Epoch (UTC): 19 December 2014 21:02:42
Eccentricity: 0.0010756
inclination: 82.5086°
perigee height: 547 km
apogee height: 562 km
right ascension of ascending node: 285.5826°
argument of perigee: 197.8231°
revolutions per day: 15.03951671
mean anomaly at epoch: 162.2619°
orbit number at epoch: 53387

The dashed part of the orbit path shows where the satellite is in the earth's shadow,  

DLR